Weather in Leninskiy

Russia / Rostov Oblast     47°10′35″N   40°53′21″E
temp.,
°C
wind,
m/s
gust,
m/s
humid.,
%
clouds,
%
prec.,
mm/h
press.,
hPa
HPBL,
m
20 january, wed
wed2000:00−17w2391100 0.0 102226
03:00−18wsw239383 0.0 102320
06:00−17w2393100 0.0 102331
09:00−17wnw229398 0.0 102526
12:00−13w23883 0.0 1026254
15:00−12wnw249013 0.0 1026327
18:00−17w12931 0.0 102820
21:00−18w119420 0.0 102820
21 january, thu
thu2100:00−19wnw11930 0.0 103020
03:00−20nw01950 0.0 103020
06:00−20sse01940 0.0 103120
09:00−19sse11900 0.0 103220
12:00−13sse22870 0.0 1032184
15:00−11sse23901 0.0 1030215
18:00−14sse33920 0.0 103021
21:00−13sse34924 0.0 102935
22 january, fri
fri2200:00−10ssw239645 0.0 102822
03:00−5wsw139767 0.1 102794
06:000wsw31498100 0.2 1026499
09:00+2wsw51398100 0.3 1027412
12:00+2wsw41310099 0.0 1027373
15:00+2sw41210079 0.0 1026343
18:000sw499824 0.0 1026179
21:00+1sw379862 0.0 1027204
23 january, sat
sat2300:00−1s239386 0.0 102647
03:00−4sse338249 0.0 102624
06:00−3sse348029 0.0 102538
09:00−3sse348030 0.0 102672
12:00+1sse36900 0.0 1025150
15:00+1sse37873 0.0 1024166
18:00−1sse3587100 0.0 102488
21:00−2sse478590 0.0 1024135
24 january, sun
sun2400:00−3sse49844 0.0 1024145
03:00−3se47882 0.0 1023118
06:00−3se47907 0.0 1022116
09:00−2se410938 0.0 1023241
12:00+1se599749 0.0 1021348
15:00+1ese699974 0.0 1020348
18:000se5995100 0.0 1019383
21:00−1ese4993100 0.0 1018253